GW7343 Weather Reports


time (UTC)temp
F
wind
direction
speed
knots
gust
knots
rain 1hr
in
rain 24hr
in
rain mn
in
humidity
%
barometer
mb
20260504183028 75 259 7.8 20.9 0.00 0.00 0.00 1000.8
20260504182506 75 190 9.6 18.2 0.00 0.00 0.00 1000.7
20260504182010 75 144 7.0 20.0 0.00 0.00 0.00 33 1000.9
20260504181527 75 209 8.7 18.2 0.00 0.00 0.00 33 1001.0
20260504181011 74 207 7.0 18.2 0.00 0.00 0.00 33 1001.0
20260504180514 75 262 9.6 17.4 0.00 0.00 0.00 34 1001.1
20260504180027 75 253 4.3 19.1 0.00 0.00 0.00 33 1001.2
20260504175510 75 220 10.4 19.1 0.00 0.00 0.00 33 1001.3
20260504175011 75 218 10.4 19.1 0.00 0.00 0.00 33 1001.4
20260504174512 75 225 7.8 19.1 0.00 0.00 0.00 33 1001.5
20260504174007 74 223 8.7 17.4 0.00 0.00 0.00 33 1001.6
20260504173507 74 232 7.8 17.4 0.00 0.00 0.00 35 1001.6
20260504173023 74 250 7.8 15.6 0.00 0.00 0.00 36 1001.7
20260504172510 73 214 5.2 14.8 0.00 0.00 0.00 37 1001.7
20260504172014 73 207 7.0 14.8 0.00 0.00 0.00 36 1001.9
20260504171532 74 198 7.0 12.2 0.00 0.00 0.00 37 1002.0
20260504171010 73 199 5.2 16.5 0.00 0.00 0.00 36 1001.9
20260504170505 73 238 7.8 16.5 0.00 0.00 0.00 36 1002.2
20260504151010 64 197 4.3 12.2 0.00 0.00 0.00 53 1003.6
20260504150506 64 210 7.0 12.2 0.00 0.00 0.00 53 1003.6
20260504141010 60 211 7.8 12.2 0.00 0.00 0.00 56 1003.9
20260504140510 60 207 6.1 12.2 0.00 0.00 0.00 57 1003.9
20260504130513 57 258 4.3 11.3 0.00 0.00 0.00 61 1004.6
20260504110506 49 252 2.6 8.7 0.00 0.00 0.00 70 1004.6
20260504100511 49 222 4.3 8.7 0.00 0.00 0.00 68 1004.4
20260504081535 50 227 2.6 7.8 0.00 0.00 0.00 65 1005.0
20260504081008 50 248 3.5 7.8 0.00 0.00 0.00 65 1005.0
20260504080511 50 209 4.3 7.8 0.00 0.00 0.00 65 1005.1
20260504050510 53 219 5.2 9.6 0.00 0.00 0.00 57 1007.3
20260504050003 53 186 4.3 9.6 0.00 0.00 0.00 57 1007.4
20260504045503 53 246 4.3 9.6 0.00 0.00 0.00 57 1007.4
20260504045003 53 186 3.5 13.0 0.00 0.00 0.00 57 1007.5
20260504044515 53 236 5.2 13.0 0.00 0.00 0.00 57 1007.5
20260504044006 53 257 4.3 11.3 0.00 0.00 0.00 57 1007.5
20260504043507 53 200 7.0 11.3 0.00 0.00 0.00 56 1007.5
20260504043024 53 203 3.5 11.3 0.00 0.00 0.00 57 1007.6
20260504042509 53 197 6.1 13.0 0.00 0.00 0.00 57 1007.7
20260504042004 53 223 5.2 12.2 0.00 0.00 0.00 56 1007.6
20260504041508 53 230 5.2 11.3 0.00 0.00 0.00 56 1007.8
20260504041005 53 202 3.5 11.3 0.00 0.00 0.00 56 1007.8
20260504040507 53 202 6.1 12.2 0.00 0.00 0.00 56 1007.8
20260504040018 53 160 7.0 13.0 0.00 0.00 0.00 56 1007.9
20260504035513 53 198 3.5 13.0 0.00 0.00 0.00 56 1007.9
20260504035011 53 209 5.2 13.9 0.00 0.00 0.00 56 1007.9
20260504034533 54 232 5.2 13.9 0.00 0.00 0.00 55 1008.0
20260504034002 54 190 7.0 11.3 0.00 0.00 0.00 55 1008.1
20260504033502 54 200 5.2 13.9 0.00 0.00 0.00 55 1008.1
20260504033021 54 188 5.2 14.8 0.00 0.00 0.00 55 1008.1
20260504032505 54 240 6.1 14.8 0.00 0.00 0.00 55 1008.2
20260504032010 54 203 4.3 14.8 0.00 0.00 0.00 55 1008.2
20260504031528 54 208 4.3 13.0 0.00 0.00 0.00 55 1008.2
20260504031008 54 163 6.1 13.0 0.00 0.00 0.00 55 1008.2
20260504030512 54 217 5.2 13.0 0.00 0.00 0.00 55 1008.3
20260504030007 54 242 6.1 12.2 0.00 0.00 0.00 55 1008.3
20260504025503 54 219 7.0 12.2 0.00 0.00 0.00 55 1008.3
20260504025004 54 219 7.8 12.2 0.00 0.00 0.00 55 1008.4
20260504024535 54 186 6.1 11.3 0.00 0.00 0.00 55 1008.5
20260504024009 54 239 6.1 13.9 0.00 0.00 0.00 55 1008.5
20260504023507 54 219 7.0 13.9 0.00 0.00 0.00 55 1008.7
20260504023024 54 218 5.2 14.8 0.00 0.00 0.00 55 1008.5
20260504022510 54 195 5.2 14.8 0.00 0.00 0.00 55 1008.7
20260504022007 54 163 5.2 10.4 0.00 0.00 0.00 55 1008.7
20260504021510 55 223 4.3 12.2 0.00 0.00 0.00 54 1008.7
20260504021005 55 200 7.0 12.2 0.00 0.00 0.00 54 1008.6
20260504020509 55 246 4.3 12.2 0.00 0.00 0.00 53 1008.6
20260504020022 55 225 5.2 11.3 0.00 0.00 0.00 53 1008.5
20260504015509 55 211 4.3 14.8 0.00 0.00 0.00 53 1008.5
20260504015009 55 192 7.8 14.8 0.00 0.00 0.00 53 1008.6
20260504014526 55 205 4.3 9.6 0.00 0.00 0.00 53 1008.5
20260504014005 56 246 3.5 13.0 0.00 0.00 0.00 53 1008.4
20260504013506 56 271 7.0 13.0 0.00 0.00 0.00 52 1008.6
20260504013016 56 236 6.1 13.0 0.00 0.00 0.00 52 1008.5
20260504012507 56 227 7.8 15.6 0.00 0.00 0.00 51 1008.5
20260504012008 57 219 7.0 15.6 0.00 0.00 0.00 50 1008.5
20260504011525 57 212 7.8 17.4 0.00 0.00 0.00 50 1008.6
20260504011008 57 254 11.3 20.0 0.00 0.00 0.00 49 1008.5
20260504010515 57 227 11.3 20.0 0.00 0.00 0.00 48 1008.5
20260504010011 57 192 13.0 20.0 0.00 0.00 0.00 48 1008.5
20260504005506 58 252 10.4 17.4 0.00 0.00 0.00 48 1008.5
20260504005008 58 252 13.0 18.2 0.00 0.00 0.00 48 1008.5
20260504004534 59 264 7.0 19.1 0.00 0.00 0.00 47 1008.4
20260504004009 59 275 10.4 19.1 0.00 0.00 0.00 47 1008.3
20260504003513 59 251 7.0 15.6 0.00 0.00 0.00 45 1008.1
20260504003027 59 244 5.2 15.6 0.00 0.00 0.00 45 1008.0
20260504002511 60 247 6.1 15.6 0.00 0.00 0.00 44 1008.0
20260504002005 60 261 9.6 15.6 0.00 0.00 0.00 43 1007.9
20260504001514 60 243 5.2 16.5 0.00 0.00 0.00 43 1007.8
20260504001010 60 223 6.1 16.5 0.00 0.00 0.00 42 1007.8
20260504000505 60 266 6.1 16.5 0.00 0.00 0.00 42 1007.8
20260504000024 60 213 8.7 16.5 0.00 0.00 0.00 41 1007.8
20260503235509 60 254 7.0 15.6 0.00 0.00 0.00 41 1007.7
20260503235010 61 234 7.8 17.4 0.00 0.00 0.00 40 1007.7
20260503234529 61 248 10.4 17.4 0.00 0.00 0.00 40 1007.6
20260503234005 61 194 9.6 19.1 0.00 0.00 0.00 40 1007.9
20260503233505 61 243 9.6 19.1 0.00 0.00 0.00 39 1007.7
20260503233017 61 225 5.2 19.1 0.00 0.00 0.00 39 1007.7
20260503232505 61 234 7.0 19.1 0.00 0.00 0.00 39 1007.7
20260503232008 62 236 12.2 20.0 0.00 0.00 0.00 38 1007.8
20260503231526 62 256 7.8 20.0 0.00 0.00 0.00 38 1007.8
20260503231012 62 248 13.0 19.1 0.00 0.00 0.00 37 1007.7
20260503230511 62 233 11.3 20.0 0.00 0.00 0.00 38 1007.8
20260503230009 62 233 8.7 20.0 0.00 0.00 0.00 37 1007.8
20260503225505 62 223 6.1 19.1 0.00 0.00 0.00 37 1007.8
20260503225008 63 236 10.4 19.1 0.00 0.00 0.00 37 1007.9
20260503224521 63 16 6.1 13.0 0.00 0.00 0.00 37 1007.9
20260503224009 62 248 6.1 16.5 0.00 0.00 0.00 37 1008.0
20260503223510 62 246 11.3 15.6 0.00 0.00 0.00 37 1008.1
20260503223026 62 252 9.6 16.5 0.00 0.00 0.00 39 1008.1
20260503222509 62 221 6.1 21.7 0.00 0.00 0.00 38 1008.3
20260503222005 62 263 8.7 21.7 0.00 0.00 0.00 37 1008.3
20260503221513 63 240 7.0 15.6 0.00 0.00 0.00 37 1008.3
20260503221009 62 259 7.0 15.6 0.00 0.00 0.00 38 1008.3
20260503220508 62 260 9.6 19.1 0.00 0.00 0.00 37 1008.3
20260503220022 62 223 8.7 19.1 0.00 0.00 0.00 37 1008.3
20260503215512 62 267 7.8 14.8 0.00 0.00 0.00 38 1008.3
20260503215013 62 215 6.1 16.5 0.00 0.00 0.00 38 1008.3
20260503214527 62 233 7.8 21.7 0.00 0.00 0.00 37 1008.3
20260503214005 62 213 10.4 21.7 0.00 0.00 0.00 37 1008.2
20260503213509 62 265 10.4 20.0 0.00 0.00 0.00 36 1008.4
20260503213019 63 240 10.4 20.0 0.00 0.00 0.00 36 1008.3
20260503212509 63 238 11.3 17.4 0.00 0.00 0.00 36 1008.2
20260503212013 63 288 7.8 16.5 0.00 0.00 0.00 35 1008.2
20260503211536 63 257 9.6 17.4 0.00 0.00 0.00 36 1008.3
20260503211010 63 259 8.7 17.4 0.00 0.00 0.00 36 1008.3
20260503210509 63 249 6.1 15.6 0.00 0.00 0.00 37 1008.2
20260503210031 63 230 7.8 19.1 0.00 0.00 0.00 36 1008.3
20260503205509 63 259 9.6 19.1 0.00 0.00 0.00 35 1008.3
20260503205010 63 223 7.8 18.2 0.00 0.00 0.00 36 1008.3
20260503204520 63 248 7.0 18.2 0.00 0.00 0.00 36 1008.4
20260503204010 63 223 11.3 18.2 0.00 0.00 0.00 36 1008.3
20260503203510 63 184 9.6 20.9 0.00 0.00 0.00 35 1008.4
20260503203028 63 238 11.3 20.9 0.00 0.00 0.00 35 1008.5
20260503202511 64 283 10.4 18.2 0.00 0.00 0.00 33 1008.4
20260503202014 64 272 9.6 18.2 0.00 0.00 0.00 33 1008.5
20260503201516 65 231 10.4 18.2 0.00 0.00 0.00 32 1008.5
20260503201009 66 260 8.7 20.0 0.00 0.00 0.00 33 1008.5
20260503200513 66 283 7.8 20.0 0.00 0.00 0.00 33 1008.5
20260503200024 66 234 11.3 20.0 0.00 0.00 0.00 32 1008.6
20260503195512 66 274 10.4 17.4 0.00 0.00 0.00 32 1008.7
20260503195005 65 261 9.6 20.0 0.00 0.00 0.00 33 1008.8
20260503194508 65 250 11.3 20.0 0.00 0.00 0.00 32 1008.9
20260503194007 65 254 7.0 18.2 0.00 0.00 0.00 34 1008.9
20260503193510 65 250 10.4 19.1 0.00 0.00 0.00 32 1008.9
20260503193034 65 269 7.8 19.1 0.00 0.00 0.00 34 1009.0
20260503192509 65 201 9.6 19.1 0.00 0.00 0.00 31 1009.1
20260503192010 65 245 12.2 25.2 0.00 0.00 0.00 34 1009.1
20260503191526 65 253 13.9 25.2 0.00 0.00 0.00 33 1009.2
20260503191003 64 237 11.3 24.3 0.00 0.00 0.00 33 1009.4
20260503190506 64 171 12.2 23.5 0.00 0.00 0.00 32 1009.3
20260503190024 64 247 13.9 23.5 0.00 0.00 0.00 33 1009.4
20260503185507 65 281 10.4 22.6 0.00 0.00 0.00 32 1009.5
20260503185009 64 252 9.6 22.6 0.00 0.00 0.00 34 1009.7
20260503184523 63 183 8.7 20.0 0.00 0.00 0.00 34 1009.6
20260503184010 63 291 9.6 20.0 0.00 0.00 0.00 33 1009.7
20260503183515 63 248 11.3 19.1 0.00 0.00 0.00 34 1009.7